Theta_e
303 302 303 304 307 309 309 310 309 308 308 308 306 306 308 309 309 312 314 316 321 323 325 324 327 330 339 338 338 339 344 346
303 303 302 302 303 307 307 307 307 306 305 305 303 304 305 306 307 309 310 311 313 317 320 322 322 326 334 338 337 338 344 345
303 302 302 302 301 302 304 305 305 304 303 303 300 300 301 303 304 305 306 308 308 311 314 317 318 321 327 337 336 343 343 345
301 302 301 301 300 302 302 302 302 301 300 299 298 299 300 301 303 303 303 304 305 306 309 311 312 313 319 328 341 341 341 343
301 301 302 301 300 300 300 301 300 300 300 298 297 297 299 299 300 300 299 301 299 303 301 305 306 309 312 319 330 340 340 342
301 300 301 301 300 299 300 299 299 298 298 298 296 296 297 298 299 299 299 298 297 298 303 300 303 305 308 312 320 333 339 340
301 301 301 300 300 299 299 299 298 297 297 297 296 295 295 296 297 297 297 298 296 296 300 301 299 303 305 308 315 319 337 339
300 301 301 300 299 299 298 299 298 296 296 296 297 296 295 295 296 296 296 297 296 295 296 298 299 301 301 305 312 317 322 338
299 300 301 300 299 298 298 298 297 295 295 296 296 296 295 295 293 293 293 295 295 294 295 296 297 299 300 304 308 315 319 335
300 299 299 300 299 298 298 297 296 295 295 295 295 295 295 294 292 292 293 293 293 293 293 293 294 296 299 300 302 307 315 321
299 299 298 298 298 298 298 297 296 296 295 295 295 295 295 294 292 293 293 293 292 293 292 294 294 294 296 300 300 303 310 320
298 298 298 298 297 297 296 295 295 296 295 295 295 295 295 294 293 294 293 292 292 293 292 293 293 294 294 298 302 304 309 319
298 297 297 296 296 294 293 292 294 294 295 295 295 295 294 294 294 294 294 292 292 292 292 291 292 294 294 294 299 305 310 319
297 296 296 295 296 294 294 293 293 294 295 295 295 294 294 294 294 294 293 293 292 292 291 290 290 293 290 293 298 310 316 321
296 295 295 296 296 294 294 294 294 292 292 292 292 293 294 294 294 294 294 294 293 291 291 290 287 291 292 290 289 291 294 318
295 295 295 295 296 294 292 291 289 291 290 291 292 293 293 294 294 294 294 293 292 291 291 288 288 288 291 293 293 294 292 296
295 295 295 295 294 294 292 291 290 290 290 290 291 292 293 293 293 293 292 292 292 291 289 288 289 289 289 290 292 293 295 293
295 294 294 294 294 293 292 291 289 288 288 288 289 290 291 292 291 289 291 291 291 290 288 288 289 290 290 291 291 290 290 291
293 293 292 294 293 293 292 290 289 288 288 288 288 288 289 289 288 289 290 290 289 289 287 288 289 289 290 291 292 292 293 293
293 293 292 293 292 292 292 290 289 289 289 289 289 289 289 290 288 289 288 290 289 287 287 288 289 290 290 291 292 292 293 293
Wind_Speed
10 12 16 18 21 23 22 23 24 26 26 27 27 25 25 25 24 24 25 23 23 23 22 23 25 20 15 14 15 16 14 10
12 14 16 15 15 22 21 22 24 25 25 26 24 23 24 24 24 22 24 25 24 22 23 22 25 23 17 14 16 17 13 14
12 13 14 15 15 13 15 18 21 22 21 25 19 14 16 20 21 22 23 24 23 24 23 24 22 22 20 13 15 11 12 9
10 11 13 13 12 13 12 12 12 13 15 17 13 15 14 16 17 20 22 24 24 24 22 21 18 9 10 15 9 11 11 10
9 9 10 11 11 10 7 8 9 10 16 16 14 12 12 11 9 9 11 17 12 16 13 10 12 9 9 11 10 12 8 8
7 8 9 10 9 10 9 9 10 10 13 16 13 9 12 11 9 12 11 10 14 14 10 11 13 11 10 13 12 9 9 8
8 8 9 10 12 10 10 9 10 12 12 14 12 12 12 12 11 11 12 12 11 12 14 13 13 12 10 10 15 11 13 9
8 8 9 11 11 13 10 9 11 11 11 13 15 12 12 12 12 12 12 13 11 10 13 13 12 11 12 9 17 10 10 15
7 7 9 11 13 12 9 10 10 11 11 14 15 14 13 14 11 12 12 12 14 12 12 11 12 11 13 13 11 10 8 12
7 7 10 11 12 10 9 10 9 10 10 11 15 15 14 12 9 10 11 10 10 10 10 11 11 10 9 10 11 10 8 14
8 8 9 10 10 9 11 12 9 9 10 10 14 14 14 12 10 8 10 9 10 10 11 11 13 10 10 11 11 8 7 12
5 6 8 10 8 9 9 9 9 9 10 10 13 12 14 12 10 11 9 8 9 10 12 13 13 11 13 11 9 8 8 10
7 8 9 9 8 9 9 10 10 9 10 14 14 14 15 13 11 12 12 10 10 12 10 17 12 12 9 9 8 8 11 10
7 8 10 9 7 8 8 9 9 9 10 12 14 15 14 12 13 12 14 11 13 13 16 13 11 10 7 6 6 2 6 12
6 8 10 9 9 7 8 9 9 10 11 11 13 14 14 14 15 14 14 12 10 13 15 15 9 10 12 6 5 5 7 5
6 7 9 9 9 10 13 11 12 10 11 11 11 14 14 14 15 15 14 11 12 13 13 10 10 10 7 7 7 7 4 6
5 6 8 8 9 10 10 12 10 10 10 12 13 12 14 14 15 15 14 10 12 15 14 12 8 7 8 7 7 7 5 4
5 7 7 8 9 10 12 13 14 12 12 10 11 11 11 14 15 13 14 12 11 13 12 13 11 9 8 8 7 4 7 5
5 6 7 7 9 10 11 13 13 13 13 11 13 11 11 13 14 11 11 12 14 13 12 12 12 10 10 8 6 5 5 6
5 6 7 7 8 8 10 12 9 9 11 11 10 10 11 15 11 14 13 16 15 11 10 10 12 10 12 9 7 6 6 6
Wind_Direction
17 19 19 20 20 23 17 18 13 10 9 5 1 1 1 1 360 3 358 349 342 335 331 338 330 324 288 210 185 182 188 182
17 19 18 17 19 13 15 14 12 10 10 6 2 359 357 359 356 359 358 355 344 334 333 331 328 325 304 226 194 177 188 187
18 16 17 17 19 10 8 6 9 7 7 4 1 358 353 354 353 353 354 352 350 342 335 336 332 335 324 245 202 192 188 192
17 14 14 14 15 10 8 7 8 8 5 2 0 354 352 350 347 352 351 348 346 348 341 342 340 333 327 320 213 195 189 190
8 5 7 9 11 8 10 7 5 2 3 3 357 351 353 352 344 349 348 348 346 344 344 352 326 338 315 308 306 199 193 185
356 359 3 9 6 11 7 10 7 2 359 0 357 355 353 351 347 342 344 344 343 343 338 327 326 329 302 311 299 265 198 187
359 358 6 4 10 7 8 7 10 1 2 3 359 353 352 347 346 345 342 339 342 339 338 337 322 327 314 328 295 296 212 197
350 1 5 8 10 6 9 6 5 6 6 4 360 353 351 348 346 345 344 340 338 335 334 335 328 317 302 331 279 286 291 200
350 358 9 11 7 9 11 9 2 9 7 5 2 359 353 348 346 344 340 332 332 335 336 331 332 317 322 296 303 291 291 227
357 12 12 9 7 10 9 4 4 9 7 2 1 356 351 348 344 341 334 333 329 334 336 333 330 323 311 299 297 284 282 288
9 14 15 6 9 9 5 1 5 5 2 359 358 352 344 344 343 336 334 328 332 333 335 332 330 322 307 292 270 272 274 270
24 26 15 7 6 7 360 2 5 1 355 350 349 351 343 337 339 337 335 329 332 334 333 335 328 323 308 287 275 269 246 243
34 25 17 11 10 3 356 1 360 354 350 348 345 345 347 339 340 341 339 334 335 335 336 340 337 334 324 323 267 231 230 230
43 30 21 15 12 357 350 351 352 348 348 344 345 346 350 346 344 341 343 340 344 349 351 342 338 341 332 309 327 272 230 221
42 32 21 16 9 353 358 358 355 353 348 347 349 353 355 355 350 344 350 347 353 353 350 352 334 339 349 1 340 329 336 230
41 32 23 18 6 357 4 2 356 349 344 346 347 355 357 357 354 348 351 348 355 354 351 341 337 339 343 348 332 309 331 313
35 30 26 16 6 8 9 6 352 343 347 349 356 355 357 357 355 348 350 355 343 354 355 340 338 338 342 338 343 319 33 317
33 25 20 10 5 15 18 5 352 348 355 355 358 356 354 359 356 349 343 349 347 355 340 341 345 342 343 345 358 354 341 338
20 17 10 2 8 21 16 4 356 353 356 357 357 355 355 355 355 341 352 0 351 358 337 343 345 344 346 343 350 7 335 326
9 6 352 4 9 19 13 6 358 360 360 357 357 356 353 357 348 356 354 357 0 349 341 346 348 345 348 356 347 355 353 339